TimeCST,TemperatureF,Dew PointF,Humidity,Sea Level PressureIn,VisibilityMPH,Wind Direction,Wind SpeedMPH,Gust SpeedMPH,PrecipitationIn,Events,Conditions,WindDirDegrees,DateUTC
12:53 AM,37.0,27.0,67,30.25,10.0,Calm,Calm,-,N/A,,Clear,0,2013-03-07 06:53:00
1:53 AM,32.0,28.0,85,30.26,10.0,Calm,Calm,-,N/A,,Clear,0,2013-03-07 07:53:00
2:53 AM,28.0,26.1,92,30.24,10.0,Calm,Calm,-,N/A,,Clear,0,2013-03-07 08:53:00
3:53 AM,26.1,25.0,96,30.23,10.0,Calm,Calm,-,N/A,,Clear,0,2013-03-07 09:53:00
4:53 AM,26.1,24.1,92,30.22,10.0,Calm,Calm,-,N/A,,Clear,0,2013-03-07 10:53:00
5:53 AM,28.9,26.1,89,30.21,9.0,Calm,Calm,-,N/A,,Clear,0,2013-03-07 11:53:00
6:53 AM,26.1,24.1,92,30.22,7.0,Calm,Calm,-,N/A,,Clear,0,2013-03-07 12:53:00
7:53 AM,34.0,30.0,85,30.23,7.0,Calm,Calm,-,N/A,,Clear,0,2013-03-07 13:53:00
9:53 AM,51.1,28.0,41,30.20,10.0,South,17.3,24.2,0.40,,Clear,170,2013-03-07 15:53:00
10:53 AM,57.0,26.1,30,30.19,10.0,North,-9999.0,-,N/A,,Clear,0,2013-03-07 16:53:00
12:53 PM,-9999,-9999,N/A,30.15,-9999.0,North,-9999.0,-,N/A,,Unknown,0,2013-03-07 18:53:00
1:53 PM,-9999,-9999,N/A,30.12,-9999.0,North,-9999.0,-,N/A,,Unknown,0,2013-03-07 19:53:00
2:53 PM,-9999,-9999,N/A,30.10,-9999.0,North,-9999.0,-,N/A,,Unknown,0,2013-03-07 20:53:00
3:53 PM,-9999,-9999,N/A,30.09,-9999.0,North,-9999.0,-,N/A,,Unknown,0,2013-03-07 21:53:00
4:53 PM,-9999,-9999,N/A,30.08,-9999.0,North,-9999.0,-,N/A,,Unknown,0,2013-03-07 22:53:00
5:53 PM,-9999,-9999,N/A,30.08,-9999.0,North,-9999.0,-,N/A,,Unknown,0,2013-03-07 23:53:00
6:53 PM,-9999,-9999,N/A,30.08,-9999.0,North,-9999.0,-,N/A,,Unknown,0,2013-03-08 00:53:00
7:53 PM,-9999,-9999,N/A,30.10,-9999.0,North,-9999.0,-,N/A,,Unknown,0,2013-03-08 01:53:00
8:53 PM,-9999,-9999,N/A,30.12,-9999.0,North,-9999.0,-,N/A,,Unknown,0,2013-03-08 02:53:00
9:53 PM,-9999,-9999,N/A,30.12,-9999.0,North,-9999.0,-,N/A,,Unknown,0,2013-03-08 03:53:00
10:53 PM,-9999,-9999,N/A,30.13,-9999.0,North,-9999.0,-,N/A,,Unknown,0,2013-03-08 04:53:00